This is the latest recevied weather packets stored in our database for station/object W8KHW. If no packets are shown the sender has not sent any weather packets the latest 10 day(s).
| Time | Temp. | Humidity | Pressure | Rain* | Wind** | Luminosity | Snow |
|---|---|---|---|---|---|---|---|
| 1777703375 | 1.67° C | 98% | 1017.6 hPa | 0 mm | - | - | - |
| 1777702875 | 1.67° C | 98% | 1017.8 hPa | 0 mm | - | - | - |
| 1777702374 | 1.67° C | 98% | 1017.5 hPa | 0 mm | - | - | - |
| 1777701874 | 2.22° C | 98% | 1017.6 hPa | 0 mm | - | - | - |
| 1777701374 | 2.22° C | 98% | 1017.6 hPa | 0 mm | - | - | - |
| 1777700874 | 1.67° C | 98% | 1017.8 hPa | 0 mm | - | - | - |
| 1777700373 | 2.22° C | 98% | 1017.9 hPa | 0 mm | - | - | - |
| 1777699873 | 2.22° C | 98% | 1017.9 hPa | 0 mm | - | - | - |
| 1777699373 | 2.22° C | 98% | 1017.9 hPa | 0 mm | - | - | - |
| 1777698872 | 2.22° C | 98% | 1017.8 hPa | 0 mm | - | - | - |
| 1777698372 | 2.22° C | 98% | 1017.9 hPa | 0 mm | - | - | - |
| 1777697872 | 2.22° C | 98% | 1017.8 hPa | 0 mm | - | - | - |
| 1777697372 | 2.22° C | 98% | 1017.6 hPa | 0 mm | - | - | - |
| 1777696872 | 2.22° C | 97% | 1017.7 hPa | 0 mm | - | - | - |
| 1777696371 | 2.78° C | 97% | 1017.5 hPa | 0 mm | - | - | - |
| 1777695871 | 2.78° C | 97% | 1017.8 hPa | 0 mm | - | - | - |
| 1777695371 | 2.78° C | 97% | 1017.8 hPa | 0 mm | - | - | - |
| 1777694871 | 3.33° C | 97% | 1017.7 hPa | 0 mm | - | - | - |
| 1777694371 | 2.78° C | 97% | 1017.7 hPa | 0 mm | - | - | - |
| 1777693870 | 2.78° C | 97% | 1017.7 hPa | 0 mm | - | - | - |
| 1777693370 | 3.33° C | 97% | 1017.6 hPa | 0 mm | - | - | - |
| 1777692870 | 3.33° C | 97% | 1017.6 hPa | 0 mm | - | - | - |
| 1777692370 | 3.33° C | 97% | 1017.6 hPa | 0 mm | - | - | - |
| 1777691870 | 3.89° C | 97% | 1017.8 hPa | 0 mm | - | - | - |
| 1777691369 | 3.33° C | 96% | 1017.8 hPa | 0 mm | - | - | - |
* Rain latest hour (hover to see other rain measurements)
** Current wind speed in m/s (hover to see current wind gust speed)